Sign In / Sign Up
 
 
Ocean Inside Regatta. Leg 3. 17/12 - 23/12



Race Date (UTC) # I place II place III place Track
Race4108 2018-12-22 15:08:49 8 Che peccato.. Ogni mese meno giocatori, per colpa di chi non sa competere e non sa cosa significhi un passa tempo.... Dove, tutti partano alla pari... Piotr470 Strbrd
Race4107 2018-12-22 15:07:34 8 marty909 scoglio pacoto
Race4106 2018-12-22 15:05:35 8 revenge Polepole3 Lago 26 - pocolocos
Race4105 2018-12-22 15:03:04 8 muzammil marco38 Sadalsuck
Race4104 2018-12-22 15:01:50 8 Strbrd SKINNY88 Valentina
Race4103 2018-12-22 14:59:51 8 Zero 24 777 ___
Race4102 2018-12-22 14:57:02 6 marco38 lord Tuono
Race4101 2018-12-22 14:55:11 8 Valentina Strbrd Che peccato.. Ogni mese meno giocatori, per colpa di chi non sa competere e non sa cosa significhi un passa tempo.... Dove, tutti partano alla pari...
Race4100 2018-12-22 14:54:05 8 youppi03:50:40 E Daje MED
Race4099 2018-12-22 14:52:23 8 Andrey TeRehutai Hihihihihi
Race4098 2018-12-22 14:50:54 2 Terraphobia Hihihihihi
Race4097 2018-12-22 14:49:33 8 Valentina SKINNY88 marco38
Race4096 2018-12-22 14:48:48 8 La GattaGnuda 777 JeanPipit
Race4095 2018-12-22 14:47:49 8 E Daje Aquila Berkut1020
Race4094 2018-12-22 14:45:39 8 Zero 24 ___ youppi03:50:40
Race4093 2018-12-22 14:44:09 3 lupin 3 :54:10 Maverick SKINNY88
Race4092 2018-12-22 14:43:42 8 Dannato F18 Valentina lord
Race4091 2018-12-22 14:42:56 8 Che peccato.. Ogni mese meno giocatori, per colpa di chi non sa competere e non sa cosa significhi un passa tempo.... Dove, tutti partano alla pari... P.M.F. RUS64
Race4090 2018-12-22 14:41:32 8 TeRehutai La GattaGnuda CrAsH
Race4089 2018-12-22 14:37:52 8 youppi03:50:40 bra22 Dream
Race4088 2018-12-22 14:36:56 8 Che peccato.. Ogni mese meno giocatori, per colpa di chi non sa competere e non sa cosa significhi un passa tempo.... Dove, tutti partano alla pari... Sardineta Clerico
Race4087 2018-12-22 14:35:51 8 Aquila P.M.F. JeanPipit
Race4086 2018-12-22 14:34:39 8 bra22 TeRehutai La GattaGnuda
Race4085 2018-12-22 14:33:28 2 Maverick Zero 24
Race4084 2018-12-22 14:32:28 2 TooFast PANNENKOEK
Race4083 2018-12-22 14:31:17 8 Che peccato.. Ogni mese meno giocatori, per colpa di chi non sa competere e non sa cosa significhi un passa tempo.... Dove, tutti partano alla pari... Sardineta Phantomias
Race4082 2018-12-22 14:29:50 8 ELIOTLUCAS 1 JeanPipit Clerico
Race4081 2018-12-22 14:28:18 7 bra22 Albarone TeRehutai
Race4080 2018-12-22 14:27:12 8 Zero 24 mandy Sardynia
Race4079 2018-12-22 14:24:49 8 TooFast PANNENKOEK PorcoDIO
Race4078 2018-12-22 14:22:19 8 youppi03:50:40 Sardineta Aquila
Race4077 2018-12-22 14:20:02 8 Albarone E Daje mandy
Race4076 2018-12-22 14:18:24 8 TeRehutai Zero 24 Che peccato.. Ogni mese meno giocatori, per colpa di chi non sa competere e non sa cosa significhi un passa tempo.... Dove, tutti partano alla pari...
Race4075 2018-12-22 14:16:29 8 youppi03:50:40 BlowByU Zara anti-fascist
Race4074 2018-12-22 14:15:42 2 Zero 24 FRA 180
Race4073 2018-12-22 14:14:40 8 clandestino Albarone Sardineta
Race4072 2018-12-22 14:12:42 8 TeRehutai PorcoDIO DIEMSailing
Race4071 2018-12-22 14:11:12 8 Axilla TooFast PANNENKOEK
Race4070 2018-12-22 14:08:59 8 youppi03:50:40 billo baccani GOD RIVER
Race4069 2018-12-22 14:08:16 8 Chr267 E Daje lord
Race4068 2018-12-22 14:06:58 8 ittoku Lago26-Jojo PorcoDIO
Race4067 2018-12-22 14:05:47 8 Exire Zara anti-fascist Zero 24
Race4066 2018-12-22 14:04:40 2 Andrey SKINNY88
Race4065 2018-12-22 14:02:21 8 TeRehutai youppi03:50:40 BlowByU
Race4064 2018-12-22 14:01:31 8 007 Tornado ITA-257 ittoku
Race4063 2018-12-22 14:00:03 8 Rosen Kavalier PorcoDIO erpa
Race4062 2018-12-22 13:58:45 8 take5 DIEMSailing Che peccato.. Ogni mese meno giocatori, per colpa di chi non sa competere e non sa cosa significhi un passa tempo.... Dove, tutti partano alla pari...
Race4061 2018-12-22 13:57:39 8 Stella dell'Est Piotr470 GOD RIVER
Race4060 2018-12-22 13:55:22 8 Dannato F18 BlowByU lord
Race4059 2018-12-22 13:55:00 8 sail gold PorcoDIO youppi03:50:40
Race4058 2018-12-22 13:53:01 8 H-Boat Che peccato.. Ogni mese meno giocatori, per colpa di chi non sa competere e non sa cosa significhi un passa tempo.... Dove, tutti partano alla pari... Axilla
Race4057 2018-12-22 13:50:40 8 sissa21 Piotr470 TeRehutai
Race4056 2018-12-22 13:49:27 2 pere021 Macio sghit
Race4055 2018-12-22 13:47:30 8 youppi03:50:40 AHHA PorcoDIO
Race4054 2018-12-22 13:46:24 8 Axilla Lago26-Jojo Che peccato.. Ogni mese meno giocatori, per colpa di chi non sa competere e non sa cosa significhi un passa tempo.... Dove, tutti partano alla pari...
Race4053 2018-12-22 13:44:20 8 MED take5 erpa
Race4052 2018-12-22 13:43:05 6 Dannato F18 sail gold Macio sghit
Race4051 2018-12-22 13:41:51 8 AHHA Muf PorcoDIO
Race4050 2018-12-22 13:40:41 8 Strbrd Lago26-Jojo Pura Vida
Race4049 2018-12-22 13:38:46 5 Offer Isr erpa jorda1
Race4048 2018-12-22 13:38:14 8 Fiji take5 NAGS
Race4047 2018-12-22 13:37:02 4 Macio sghit Andrey Piotr470
Race4046 2018-12-22 13:35:48 8 WINDFUCKER europe Lago26-Jojo
Race4045 2018-12-22 13:34:44 5 ventilator ITA5076 17295
Race4044 2018-12-22 13:33:20 4 Pangea jorda1 erpa
Race4043 2018-12-22 13:30:47 8 sail gold cales ayn happy
Race4042 2018-12-22 13:29:14 8 Limbo74 Rosen Kavalier WINDFUCKER
Race4041 2018-12-22 13:28:08 5 Pangea ayn happy ITA5076
Race4040 2018-12-22 13:26:05 8 TeRehutai Dannato F18 Piotr470
Race4039 2018-12-22 13:24:55 2 ayn happy Pangea
Race4038 2018-12-22 13:23:38 8 La GattaGnuda Зюзя erpa
Race4037 2018-12-22 13:22:59 8 Lago26-Jojo Che peccato.. Ogni mese meno giocatori, per colpa di chi non sa competere e non sa cosa significhi un passa tempo.... Dove, tutti partano alla pari... snipe
Race4036 2018-12-22 13:21:16 2 Limbo74 erpa
Race4035 2018-12-22 13:18:01 8 Argonaftis Fiji marcev
Race4034 2018-12-22 13:16:05 8 La GattaGnuda ITA5076 Che peccato.. Ogni mese meno giocatori, per colpa di chi non sa competere e non sa cosa significhi un passa tempo.... Dove, tutti partano alla pari...
Race4033 2018-12-22 13:15:25 2 大陽 erpa
Race4032 2018-12-22 13:14:25 2 Musashi 大陽
Race4031 2018-12-22 13:12:53 8 Piotr470 Argonaftis ayn happy
Race4030 2018-12-22 13:11:55 2 South Michele
Race4029 2018-12-22 13:11:04 8 snipe ITA5076 free wind
Race4028 2018-12-22 13:08:44 8 Che peccato.. Ogni mese meno giocatori, per colpa di chi non sa competere e non sa cosa significhi un passa tempo.... Dove, tutti partano alla pari... Rosen Kavalier Зюзя
Race4027 2018-12-22 13:05:29 6 La GattaGnuda Argonaftis marcev
Race4026 2018-12-22 13:03:12 8 H-Boat Yacht snipe
Race4025 2018-12-22 13:02:21 8 Whammer Jammer Salparo Che peccato.. Ogni mese meno giocatori, per colpa di chi non sa competere e non sa cosa significhi un passa tempo.... Dove, tutti partano alla pari...
Race4024 2018-12-22 13:01:11 2 Hichem BAR
Race4023 2018-12-22 12:59:44 2 Argonaftis Pacaypalla
Race4022 2018-12-22 12:57:11 6 Yacht H-Boat RC 30
Race4021 2018-12-22 12:56:01 8 marty909 Salparo Squilla Mantis
Race4020 2018-12-22 12:54:46 8 Atila SonOfWhoreVistona lord
Race4019 2018-12-22 12:53:04 8 RUS64 Argonaftis Fiji
Race4018 2018-12-22 12:50:34 3 ITA 24 Yacht PUR 11 LaPared
Race4017 2018-12-22 12:49:45 8 MED marcev Atila
Race4016 2018-12-22 12:47:39 8 SonOfWhoreVistona youppi03:50:40 A-GRE_9
Race4015 2018-12-22 12:44:45 8 Rosen Kavalier Argonaftis Aquila
Race4014 2018-12-22 12:42:08 6 MED Atila Salparo
Race4013 2018-12-22 12:38:18 8 MAX ITA 24 Che peccato.. Ogni mese meno giocatori, per colpa di chi non sa competere e non sa cosa significhi un passa tempo.... Dove, tutti partano alla pari...
Race4012 2018-12-22 12:36:17 8 La GattaGnuda Tigerloo34 South
Race4011 2018-12-22 12:33:12 8 MAX Musashi PRADA45
Race4010 2018-12-22 12:31:27 2 Tigerloo34 La GattaGnuda
Race4009 2018-12-22 12:30:18 4 erpa EDB Squilla Mantis